TimeEDT,TemperatureF,Dew PointF,Humidity,Sea Level PressureIn,VisibilityMPH,Wind Direction,Wind SpeedMPH,Gust SpeedMPH,PrecipitationIn,Events,Conditions,WindDirDegrees,DateUTC
12:54 AM,69.1,64.9,87,30.11,6.0,Calm,Calm,-,N/A,,Clear,0,2013-10-04 04:54:00
1:54 AM,69.1,64.0,84,30.12,8.0,Calm,Calm,-,N/A,,Clear,0,2013-10-04 05:54:00
2:54 AM,68.0,63.0,84,30.11,8.0,Calm,Calm,-,N/A,,Clear,0,2013-10-04 06:54:00
3:54 AM,66.0,62.1,87,30.11,4.0,Calm,Calm,-,N/A,,Clear,0,2013-10-04 07:54:00
4:31 AM,66.2,60.8,83,30.13,1.5,Calm,Calm,-,N/A,,Haze,0,2013-10-04 08:31:00
4:33 AM,64.4,60.8,88,30.13,0.8,Calm,Calm,-,N/A,,Mist,0,2013-10-04 08:33:00
4:43 AM,64.4,62.6,94,30.13,0.2,Calm,Calm,-,N/A,Fog,Fog,0,2013-10-04 08:43:00
4:52 AM,64.4,62.6,94,30.13,0.5,Calm,Calm,-,N/A,Fog,Fog,0,2013-10-04 08:52:00
4:54 AM,64.9,62.1,90,30.11,0.5,Calm,Calm,-,N/A,Fog,Fog,0,2013-10-04 08:54:00
5:07 AM,64.4,60.8,88,30.14,0.2,Calm,Calm,-,N/A,Fog,Fog,0,2013-10-04 09:07:00
5:14 AM,64.4,60.8,88,30.14,0.5,Calm,Calm,-,N/A,Fog,Fog,0,2013-10-04 09:14:00
5:28 AM,64.4,60.8,88,30.14,1.5,Calm,Calm,-,N/A,,Clear,0,2013-10-04 09:28:00
5:30 AM,64.4,62.6,94,30.14,3.0,Calm,Calm,-,N/A,,Clear,0,2013-10-04 09:30:00
5:54 AM,64.0,60.1,87,30.12,6.0,Calm,Calm,-,N/A,,Clear,0,2013-10-04 09:54:00
6:10 AM,64.4,60.8,88,30.14,2.5,Calm,Calm,-,N/A,,Scattered Clouds,0,2013-10-04 10:10:00
6:13 AM,64.4,60.8,88,30.14,1.0,Calm,Calm,-,N/A,,Mist,0,2013-10-04 10:13:00
6:20 AM,64.4,60.8,88,30.15,0.2,Calm,Calm,-,N/A,Fog,Fog,0,2013-10-04 10:20:00
6:28 AM,64.4,62.6,94,30.15,1.0,Calm,Calm,-,N/A,,Mist,0,2013-10-04 10:28:00
6:31 AM,64.4,62.6,94,30.15,2.5,Calm,Calm,-,N/A,,Partly Cloudy,0,2013-10-04 10:31:00
6:38 AM,64.4,62.6,94,30.15,8.0,Calm,Calm,-,N/A,,Clear,0,2013-10-04 10:38:00
6:54 AM,64.9,61.0,87,30.13,8.0,Calm,Calm,-,N/A,,Clear,0,2013-10-04 10:54:00
7:54 AM,64.0,59.0,84,30.14,6.0,Calm,Calm,-,0.01,,Haze,0,2013-10-04 11:54:00
8:14 AM,64.4,60.8,88,30.17,2.0,NE,3.5,-,N/A,,Haze,40,2013-10-04 12:14:00
8:16 AM,64.4,60.8,88,30.17,0.8,Calm,Calm,-,N/A,,Mist,0,2013-10-04 12:16:00
8:25 AM,64.4,60.8,88,30.17,0.2,Calm,Calm,-,N/A,Fog,Fog,0,2013-10-04 12:25:00
8:46 AM,64.4,62.6,94,30.18,1.0,Calm,Calm,-,N/A,,Mist,0,2013-10-04 12:46:00
8:51 AM,64.4,62.6,94,30.18,3.0,Calm,Calm,-,N/A,,Mostly Cloudy,0,2013-10-04 12:51:00
8:54 AM,66.0,62.1,87,30.16,5.0,Calm,Calm,-,N/A,,Scattered Clouds,0,2013-10-04 12:54:00
9:54 AM,73.0,63.0,71,30.17,10.0,Calm,Calm,-,N/A,,Clear,0,2013-10-04 13:54:00
10:54 AM,77.0,61.0,58,30.17,10.0,Calm,Calm,-,N/A,,Clear,0,2013-10-04 14:54:00
11:54 AM,81.0,61.0,50,30.16,10.0,Calm,Calm,-,N/A,,Clear,0,2013-10-04 15:54:00
12:54 PM,82.9,57.9,42,30.15,10.0,Variable,5.8,-,N/A,,Clear,0,2013-10-04 16:54:00
1:54 PM,82.9,57.0,41,30.12,10.0,Calm,Calm,-,N/A,,Clear,0,2013-10-04 17:54:00
2:54 PM,84.0,57.9,41,30.11,10.0,Variable,3.5,-,N/A,,Clear,0,2013-10-04 18:54:00
3:54 PM,84.9,59.0,41,30.10,10.0,ESE,4.6,-,N/A,,Clear,110,2013-10-04 19:54:00
4:54 PM,84.0,57.9,41,30.09,10.0,SSE,4.6,-,N/A,,Clear,160,2013-10-04 20:54:00
5:54 PM,82.0,61.0,49,30.09,10.0,Calm,Calm,-,N/A,,Clear,0,2013-10-04 21:54:00
6:54 PM,78.1,60.1,54,30.10,10.0,Calm,Calm,-,N/A,,Clear,0,2013-10-04 22:54:00
7:54 PM,77.0,60.1,56,30.11,10.0,Calm,Calm,-,N/A,,Clear,0,2013-10-04 23:54:00
8:54 PM,75.0,59.0,57,30.12,10.0,Calm,Calm,-,N/A,,Clear,0,2013-10-05 00:54:00
9:54 PM,72.0,61.0,68,30.13,10.0,Calm,Calm,-,N/A,,Clear,0,2013-10-05 01:54:00
10:54 PM,71.1,64.0,78,30.13,10.0,NNW,4.6,-,N/A,,Clear,330,2013-10-05 02:54:00
11:54 PM,71.1,66.0,84,30.12,9.0,Calm,Calm,-,N/A,,Clear,0,2013-10-05 03:54:00